Satellite: HUBBLE
Catalog number: 20580
Epoch time:      06151.39578716
Element set:    0622
Inclination:      028.4662 deg
RA of node:       159.3454 deg
Eccentricity:    0.0003181
Arg of perigee:   008.0585 deg
Mean anomaly:     352.0040 deg
Mean motion:   15.00043380 rev/day
Decay rate:       3.78e-06 rev/day^2
Epoch rev:           68257
Checksum:              275

Satellite: UARS
Catalog number: 21701
Epoch time:      06152.51374213
Element set:     783
Inclination:      056.9747 deg
RA of node:       159.9955 deg
Eccentricity:    0.0104985
Arg of perigee:   176.2151 deg
Mean anomaly:     183.9722 deg
Mean motion:   15.43655401 rev/day
Decay rate:      4.037e-05 rev/day^2
Epoch rev:           80688
Checksum:              318

Satellite: PO-34
Catalog number: 25520
Epoch time:      06152.42450644
Element set:     478
Inclination:      028.4580 deg
RA of node:       136.5971 deg
Eccentricity:    0.0005710
Arg of perigee:   071.0885 deg
Mean anomaly:     289.0328 deg
Mean motion:   15.16719765 rev/day
Decay rate:       6.73e-06 rev/day^2
Epoch rev:           41965
Checksum:              315

Satellite: ISS
Catalog number: 25544
Epoch time:      06152.97222222
Element set:      37
Inclination:      051.6349 deg
RA of node:       265.8249 deg
Eccentricity:    0.0008704
Arg of perigee:   278.5900 deg
Mean anomaly:     235.3963 deg
Mean motion:   15.75826451 rev/day
Decay rate:     1.5405e-04 rev/day^2
Epoch rev:           43076
Checksum:              303

Satellite: OO-38
Catalog number: 26063
Epoch time:      06152.40451822
Element set:     631
Inclination:      100.1893 deg
RA of node:       080.6032 deg
Eccentricity:    0.0036980
Arg of perigee:   151.2689 deg
Mean anomaly:     209.0534 deg
Mean motion:   14.35766677 rev/day
Decay rate:      .00000000 rev/day^2
Epoch rev:           33240
Checksum:              267

Satellite: NO-45
Catalog number: 26932
Epoch time:      06152.76291835
Element set:     328
Inclination:      067.0556 deg
RA of node:       047.1125 deg
Eccentricity:    0.0008890
Arg of perigee:   261.8403 deg
Mean anomaly:     098.1690 deg
Mean motion:   14.29526718 rev/day
Decay rate:        4.0e-08 rev/day^2
Epoch rev:           24376
Checksum:              313

Satellite: UWE-1
Catalog number: 28892
Epoch time:      06151.74135564
Element set:     464
Inclination:      098.1642 deg
RA of node:       050.2226 deg
Eccentricity:    0.0016356
Arg of perigee:   221.3450 deg
Mean anomaly:     138.6517 deg
Mean motion:   14.59355234 rev/day
Decay rate:        7.0e-07 rev/day^2
Epoch rev:            3157
Checksum:              283

Satellite: CO-58
Catalog number: 28895
Epoch time:      06152.35017231
Element set:     447
Inclination:      098.1668 deg
RA of node:       050.8964 deg
Eccentricity:    0.0017089
Arg of perigee:   218.3045 deg
Mean anomaly:     141.6936 deg
Mean motion:   14.59409532 rev/day
Decay rate:        8.5e-07 rev/day^2
Epoch rev:            3154
Checksum:              323

Satellite: NCUBE2
Catalog number: 28897
Epoch time:      06150.27250413
Element set:    0075
Inclination:      098.1663 deg
RA of node:       048.8399 deg
Eccentricity:    0.0016221
Arg of perigee:   228.2451 deg
Mean anomaly:     131.7359 deg
Mean motion:   14.59563246 rev/day
Decay rate:       1.54e-06 rev/day^2
Epoch rev:           02351
Checksum:              298

/EX




----
Via the keps mailing list at AMSAT.ORG courtesy of AMSAT-NA.
To unsubscribe, send "unsubscribe keps" to Majordomo@amsat.org

--- ViaMAIL!/WC v1.60d
 * Origin: Chowdanet (401-724-4410) telnet://chowdanet.com  (1:323/120)